Calgary Springbank Airport
CYBW : now visible

Airfield :











YOU CAN JOIN US ON...

 
LOGIN :

Register | Disclaimer

   EN    FR    IT 

 









Legend :    VFR   Marginal VFR   IFR   Intensive IFR   Very Intensive IFR
Visi :
Ceiling :
>= 8 km
>= 3000ft
5 to 8 km
1000 to 3000 ft
1500m to 5 km
500 to 1000 ft
800 to 1500m
200 to 500 ft
< 800m
< 200 ft
Symbols :   Thunderstorms  Fog  Heavy snow  Heavy precipitations  Wind > 20 kt






- Airport Elevation : 3937 ft
- IATA code : YBW


CYBW - Calgary Springbank

CURRENT METAR :
  • 290600Z AUTO 18002KT 9SM CLR 16/12 A3016 RMK SLP207 DENSITY ALT 4700FT

EXPIRED METARs :
  • 290500Z AUTO 21003KT 9SM SCT230 17/12 A3017 RMK SLP209 DENSITY ALT 4800FT
  • 290400Z AUTO 16004KT 9SM BKN240 17/12 A3016 RMK SLP207 DENSITY ALT 4900FT

Expired Forecast.
CZEG FIR / North America



MET'MAP, your aeronautical weather chart ! - Copyright ORBIFLY December 2007 - Disclaimer

ORBIFLY MET'MAP TEAM :

Programming & Development : Alexandra Zaïnal
Concept & original design : Baudouin d'Aumeries
Assistance for programming : Marc-Olivier Méhu
Technical & hardware support : Manuel Goepfert

Contact : metmap@orbifly.com




SOURCES & CREDITS :

   NOAA       Earth
Advisory